C/2017 S6 ( Catalina )

Japanese version
Home page
Updated on January 8, 2018

---------------------------------------------------------------------

* Profile

Discovery Date September 30, 2017
Magnitude 17.9 mag
Discoverer G. J. Leonard (Catalina Sky Survey)

* Pictures

* Orbital Elements

Epoch 2018 Feb. 11.0 TT = JDT 2458160.5
T 2018 Feb. 26.94175 TT                                 MPCW
q   1.5428546            (2000.0)            P               Q
z  -0.0007940      Peri.  134.69333     +0.93845617     -0.00789235
 +/-0.0000581      Node   130.87546     -0.23733338     -0.74107990
e   1.0012250      Incl.  152.82718     +0.25094399     -0.67137045
From 138 observations 2017 Sept. 30-Nov. 27, mean residual 0".6.

* Finding Charts

* Magnitudes Graph

        m1 = 12.5 + 5 log d + 10.0 log r

---------------------------------------------------------------------

The orbital elements are published on M.P.E.C. 2017-X08.
The charts are made with StellaNavigator Ver.10 (AstroArts).
The magnitudes graphs are made with Comet for Windows.

---------------------------------------------------------------------

Copyright(C) Seiichi Yoshida (comet@aerith.net). All rights reserved.